[[{"header":{"parameterUnit":"m.s-1","parameterCategory":1,"la1":30.2991,"la2":30.254,"lo1":-89.0895,"lo2":-89.0444,"dy":0.0017,"dx":0.0017,"nx":28,"ny":28,"refTime":"2024-06-02T03:00:00:Z","depth":0,"parameterNumber":2,"parameterNumberName":"U-component_of_WINDS"},"data":[0,0,0,0,0,0,0,0,0,0,0,0,0,0,0,0,0,0,0,0,0,0,0,0,0,0,0,0,0,0,0,0,0,0,0,0,0,0,0,0,0,0,0,0,0,0,0,0,0,0,0,0,0,0,0,0,0,0,0.3297,0.3297,0,0.3338,0.3339,0.3339,0.3342,0.3341,0.3341,0.334,0.3382,0.3383,0.3385,0,0,0,0,0,0,0,0,0,0,0,0,0,0.3218,0.322,0.3297,0.3298,0.3298,0.3338,0.3339,0.3339,0.3342,0.3341,0.3341,0.334,0.3381,0.3383,0.3385,0,0,0,0,0,0,0,0,0,0,0,0,0,0.3255,0.322,0.3297,0.3304,0.3305,0.3338,0.3339,0.334,0.3342,0.3341,0.3341,0.334,0.3381,0.3383,0.3385,0.3414,0,0,0.3392,0.3393,0,0,0,0,0,0,0,0,0.3253,0.3258,0.3303,0.3304,0.3305,0.3334,0.3326,0.3364,0.3342,0.3328,0.334,0.334,0.3366,0.337,0.3379,0.3415,0.3417,0.3392,0.3394,0.3395,0.3396,0,0,0,0,0,0,0,0.3251,0.3256,0.3313,0.3303,0.3305,0.3305,0.3309,0.3334,0.3351,0.3329,0.3329,0.3334,0.3367,0.3377,0.338,0.3418,0.3392,0.3394,0.3396,0.3397,0.3478,0.3479,0,0,0,0,0,0,0.3247,0.3254,0.3312,0.3315,0.3277,0.3307,0.3312,0.3326,0.335,0.3354,0.3335,0.3334,0.3373,0.3377,0.3382,0.3415,0.3395,0.3397,0.3398,0.3477,0.3478,0.3479,0,0,0,0,0,0,0.3245,0.3252,0.331,0.3285,0.3292,0.3309,0.3324,0.3327,0.3337,0.3355,0.3358,0.3342,0.3373,0.3378,0.3405,0.3417,0.3398,0.34,0.3476,0.3477,0.3478,0.3483,0,0,0,0,0,0,0.3243,0.3251,0.3263,0.3285,0.3293,0.3334,0.3325,0.3328,0.3341,0.334,0.3362,0.3365,0.3373,0.3402,0.3408,0.342,0.3402,0.3475,0.3477,0.3478,0.3482,0.3485,0.3486,0,0,0,0,0,0.324,0.3263,0.3263,0.327,0.3308,0.3335,0.3339,0.3348,0.3342,0.3353,0.3364,0.3364,0.3415,0.3405,0.3411,0.3424,0.3475,0.3476,0.3478,0.3481,0.3484,0.3486,0,0,0,0,0,0,0.3241,0.3266,0.3267,0.3297,0.3314,0.3335,0.3349,0.3351,0.3369,0.3368,0.3378,0.3383,0.3409,0.3419,0.3408,0.3452,0.3444,0.3447,0.3444,0.3447,0.3449,0.3445,0.3404,0,0,0,0,0,0.3245,0.3265,0.3285,0.331,0.3318,0.3332,0.3344,0.3349,0.3367,0.3374,0.3387,0.3404,0.3423,0.3436,0.3455,0.3484,0.3488,0.3496,0.3498,0.35,0.3502,0.3517,0.352,0.3485,0.3485,0.3485,0,0,0.3253,0.3269,0.3281,0.3311,0.3324,0.3344,0.3338,0.336,0.3374,0.3377,0.3403,0.3413,0.3432,0.346,0.3473,0.347,0.3513,0.3502,0.3503,0.3505,0.3519,0.3522,0.3525,0.3486,0.3486,0.3485,0,0,0.3278,0.3292,0.3314,0.3327,0.3348,0.3357,0.3362,0.3383,0.339,0.3416,0.3418,0.3436,0.3469,0.3482,0.3493,0.3522,0.3522,0.3528,0.3539,0.3553,0.3556,0.3558,0.3567,0.357,0.353,0.353,0.353,0,0.3285,0.3315,0.3325,0.3346,0.3358,0.3362,0.3383,0.3396,0.3421,0.3429,0.3425,0.3467,0.348,0.351,0.3517,0.3526,0.3532,0.3525,0.3555,0.3557,0.356,0.3568,0.3572,0.3531,0.3531,0.3531,0.3531,0,0.3322,0.3343,0.3358,0.3382,0.3397,0.3418,0.343,0.3443,0.3447,0.3456,0.3482,0.3498,0.352,0.3528,0.3532,0.3558,0.3555,0.3553,0.3545,0.3563,0.3571,0.3575,0.3531,0.3531,0.3531,0.3531,0,0,0.3348,0.3377,0.3382,0.3393,0.3416,0.3432,0.3453,0.3474,0.3484,0.3502,0.3519,0.3547,0.3545,0.3557,0.3563,0.3575,0.3595,0.3571,0.3572,0.3574,0.3624,0.3625,0.3628,0.3596,0.3597,0.3597,0.3622,0,0.3374,0.3412,0.342,0.3452,0.3471,0.3475,0.3493,0.3508,0.3517,0.3534,0.3544,0.3563,0.3559,0.3567,0.3579,0.359,0.3605,0.3589,0.3611,0.3612,0.3605,0.3633,0.3634,0.3656,0.3625,0.3626,0.3626,0,0.3409,0.3427,0.3461,0.348,0.3488,0.3504,0.3524,0.354,0.3557,0.3563,0.3577,0.3581,0.3602,0.3593,0.3622,0.361,0.362,0.3627,0.3628,0.3629,0.3619,0.3634,0.3664,0.3666,0.3632,0.3631,0.3631,0,0.3423,0.3456,0.348,0.3489,0.3512,0.3523,0.3533,0.355,0.3562,0.3579,0.3587,0.3606,0.3616,0.3631,0.364,0.3633,0.3667,0.366,0.3672,0.3671,0.3678,0.3677,0.3708,0.3686,0.3686,0.3686,0.3686,0,0.345,0.347,0.3486,0.3501,0.3523,0.3533,0.3554,0.3565,0.3579,0.3595,0.36,0.3615,0.3626,0.3643,0.365,0.3671,0.3676,0.3681,0.3682,0.368,0.3679,0.3685,0.3684,0.3687,0.3687,0.3686,0.3686,0,0.3469,0.3481,0.3507,0.3527,0.3532,0.3548,0.3564,0.3578,0.3587,0.3608,0.3613,0.3627,0.3647,0.3657,0.3682,0.3686,0.371,0.3711,0.3704,0.3705,0.3715,0.3714,0.3751,0.3756,0.3731,0.3731,0.3732,0,0.3485,0.35,0.3522,0.3533,0.3543,0.3562,0.3574,0.3584,0.3596,0.3616,0.3628,0.3647,0.3663,0.3694,0.3706,0.3724,0.3725,0.3737,0.3728,0.3725,0.3724,0.3723,0.3724,0.3738,0.3739,0.3739,0.3739,0,0.3512,0.3516,0.3534,0.3553,0.3567,0.3583,0.3599,0.3607,0.362,0.3633,0.3653,0.3666,0.369,0.3709,0.3728,0.3738,0.374,0.3742,0.3745,0.3742,0.3737,0.3739,0.3707,0.3741,0.374,0.374,0.374,0.374,0.3529,0.3542,0.3559,0.3578,0.3591,0.3605,0.3619,0.363,0.3646,0.3667,0.3672,0.3693,0.3709,0.3735,0.3745,0.3761,0.3758,0.3764,0.3765,0.3766,0.3765,0.3735,0.3764,0.3764,0.3764,0.3764,0.3764,0,0.3554,0.3565,0.3583,0.3604,0.3619,0.362,0.3637,0.3649,0.3667,0.3682,0.3698,0.372,0.3738,0.3752,0.377,0.378,0.3782,0.3785,0.3784,0.3786,0.3767,0.3762,0.3783,0.3783,0.3783,0.3783,0.3783,0.3783,0.3569,0.3592,0.3599,0.3627,0.3638,0.3658,0.3668,0.368,0.3692,0.3717,0.3732,0.3741,0.3755,0.3775,0.3791,0.3795,0.3801,0.3803,0.3807,0.3789,0.3787,0.3785,0.378,0.3805,0.3805,0.3824,0.3824,0.3824]},{"header":{"parameterUnit":"m.s-1","parameterCategory":1,"la1":30.2991,"la2":30.254,"lo1":-89.0895,"lo2":-89.0444,"dy":0.0017,"dx":0.0017,"nx":28,"ny":28,"refTime":"2024-06-02T03:00:00:Z","depth":0,"parameterNumber":3,"parameterNumberName":"V-component_of_WINDS"},"data":[0,0,0,0,0,0,0,0,0,0,0,0,0,0,0,0,0,0,0,0,0,0,0,0,0,0,0,0,0,0,0,0,0,0,0,0,0,0,0,0,0,0,0,0,0,0,0,0,0,0,0,0,0,0,0,0,0,0,2.6011,2.6013,0,2.6202,2.6204,2.6206,2.623,2.6228,2.6226,2.6224,2.6417,2.6424,2.643,0,0,0,0,0,0,0,0,0,0,0,0,0,2.5664,2.567,2.6011,2.6013,2.6016,2.6202,2.6204,2.6207,2.623,2.6228,2.6226,2.6224,2.6415,2.6423,2.6431,0,0,0,0,0,0,0,0,0,0,0,0,0,2.583,2.5672,2.6011,2.605,2.6055,2.6201,2.6204,2.6208,2.6231,2.6228,2.6225,2.6223,2.6412,2.6422,2.6432,2.6551,0,0,2.6463,2.6468,0,0,0,0,0,0,0,0,2.5821,2.5843,2.6042,2.6048,2.6054,2.6189,2.6152,2.6323,2.6231,2.6164,2.6224,2.6221,2.6343,2.6359,2.6401,2.656,2.6568,2.6464,2.6471,2.6475,2.6478,0,0,0,0,0,0,0,2.5809,2.5835,2.6086,2.6045,2.6052,2.6057,2.6078,2.6185,2.6267,2.617,2.6172,2.6194,2.6346,2.6391,2.6405,2.6571,2.6464,2.6473,2.648,2.6484,2.6836,2.6839,0,0,0,0,0,0,2.5791,2.5825,2.608,2.6092,2.5928,2.6065,2.6089,2.6149,2.6266,2.6281,2.6196,2.6195,2.6375,2.6393,2.6412,2.6559,2.6475,2.6485,2.649,2.6833,2.6837,2.684,0,0,0,0,0,0,2.5783,2.5813,2.6073,2.5959,2.5993,2.6074,2.6142,2.6154,2.6199,2.6286,2.63,2.6227,2.6373,2.6398,2.6516,2.6565,2.6489,2.6499,2.6829,2.6834,2.6838,2.6852,0,0,0,0,0,0,2.5773,2.5811,2.5857,2.596,2.5999,2.6175,2.6145,2.616,2.6217,2.6216,2.6319,2.6333,2.6373,2.6501,2.6526,2.6578,2.6507,2.6825,2.6831,2.6837,2.6847,2.6857,2.6865,0,0,0,0,0,2.5761,2.5853,2.586,2.589,2.6059,2.6177,2.6199,2.6244,2.6221,2.6268,2.6324,2.633,2.6556,2.6513,2.6542,2.6597,2.6822,2.6829,2.6836,2.6844,2.6855,2.6864,0,0,0,0,0,0,2.5753,2.5868,2.5876,2.6005,2.6081,2.6181,2.6242,2.6255,2.6339,2.6335,2.6386,2.6408,2.6524,2.6573,2.6523,2.6718,2.6687,2.67,2.6682,2.6694,2.6702,2.6688,2.6515,0,0,0,0,0,2.5767,2.5854,2.5949,2.6053,2.6091,2.616,2.6213,2.6241,2.6322,2.6354,2.6419,2.6496,2.6585,2.6642,2.6728,2.6855,2.6877,2.6907,2.6915,2.6922,2.6933,2.7002,2.7017,2.6864,2.6864,2.6864,0,0,2.5795,2.5868,2.592,2.6054,2.6116,2.6204,2.6187,2.6281,2.6347,2.6368,2.6484,2.6534,2.6624,2.6746,2.6804,2.679,2.698,2.6931,2.6936,2.6943,2.7011,2.7026,2.7038,2.6869,2.6868,2.6867,0,0,2.5892,2.5957,2.6051,2.6114,2.6209,2.6254,2.6276,2.6375,2.6409,2.6526,2.6543,2.6621,2.6773,2.6836,2.6888,2.7008,2.7016,2.7034,2.7078,2.7146,2.7158,2.7169,2.721,2.7225,2.7045,2.7045,2.7045,0,2.5915,2.605,2.6097,2.6191,2.6248,2.6272,2.6367,2.6425,2.6543,2.6582,2.6565,2.6756,2.6818,2.6955,2.6984,2.7026,2.7052,2.7023,2.7152,2.7164,2.7175,2.7215,2.7231,2.7046,2.7046,2.7046,2.7046,0,2.6073,2.6166,2.623,2.6345,2.6409,2.6503,2.6563,2.6622,2.6644,2.6691,2.6809,2.6884,2.6986,2.702,2.7042,2.7161,2.7149,2.7142,2.7112,2.719,2.7229,2.7245,2.7048,2.7048,2.7047,2.7047,0,0,2.6171,2.631,2.6333,2.6384,2.6491,2.6563,2.6657,2.6757,2.6807,2.6887,2.6967,2.7094,2.7088,2.7146,2.7176,2.7235,2.7324,2.722,2.7223,2.7236,2.7457,2.7462,2.7479,2.733,2.7333,2.7336,2.745,0,2.628,2.645,2.6494,2.6638,2.6723,2.6747,2.6829,2.6902,2.6948,2.7026,2.7076,2.7165,2.7151,2.7186,2.7245,2.73,2.7369,2.7293,2.7403,2.7407,2.738,2.75,2.7505,2.7609,2.7465,2.7468,2.747,0,2.643,2.6514,2.6666,2.6761,2.6798,2.6871,2.6966,2.7041,2.7124,2.7153,2.7219,2.7242,2.734,2.7304,2.7438,2.7386,2.7433,2.7467,2.7472,2.7484,2.7443,2.7514,2.7644,2.7659,2.7494,2.7492,2.7491,0,2.6485,2.6636,2.6747,2.679,2.6904,2.6954,2.7003,2.7084,2.7141,2.7223,2.7261,2.7353,2.7403,2.7474,2.7521,2.7491,2.7651,2.762,2.7677,2.7676,2.771,2.7707,2.7848,2.7741,2.7741,2.774,2.774,0,2.6602,2.6694,2.6773,2.6841,2.6944,2.6994,2.7094,2.7144,2.7216,2.7293,2.7318,2.739,2.7448,2.7527,2.7565,2.767,2.7692,2.7718,2.7726,2.7715,2.7712,2.7747,2.7741,2.7745,2.7744,2.7743,2.7742,0,2.6681,2.6738,2.686,2.6957,2.6984,2.7055,2.7138,2.7204,2.725,2.7347,2.7373,2.7445,2.7539,2.7593,2.7712,2.7737,2.7854,2.7859,2.7826,2.783,2.7884,2.7878,2.8052,2.8077,2.7954,2.7955,2.7956,0,2.6751,2.6823,2.6928,2.6982,2.7032,2.7118,2.7177,2.7228,2.7287,2.7387,2.7441,2.7537,2.7616,2.7766,2.7828,2.7919,2.7926,2.7981,2.794,2.7926,2.7926,2.7921,2.7928,2.7988,2.7989,2.799,2.7991,0,2.687,2.6895,2.6978,2.7072,2.7141,2.7217,2.7293,2.7335,2.7398,2.7463,2.7561,2.7622,2.7744,2.7838,2.7934,2.7984,2.7998,2.8003,2.8021,2.801,2.7988,2.8,2.7845,2.7999,2.7998,2.7997,2.7997,2.7997,2.6947,2.7011,2.7095,2.7187,2.7249,2.7319,2.7386,2.744,2.7523,2.7626,2.7651,2.7753,2.7833,2.7963,2.8015,2.8094,2.8085,2.8111,2.8117,2.8123,2.8124,2.7975,2.8112,2.8112,2.8112,2.8111,2.8111,0,2.7067,2.7122,2.7206,2.7311,2.7383,2.7391,2.7474,2.7534,2.7623,2.7698,2.7775,2.7886,2.7978,2.8047,2.8141,2.8191,2.82,2.8214,2.8211,2.8222,2.8128,2.8103,2.8205,2.8205,2.8205,2.8205,2.8205,2.8205,2.7137,2.7247,2.7281,2.742,2.7474,2.7575,2.7622,2.7686,2.7745,2.7869,2.7945,2.799,2.8062,2.8161,2.8245,2.8263,2.8296,2.8309,2.8327,2.8238,2.8228,2.8219,2.8195,2.8316,2.8316,2.8415,2.8415,2.8416]}]]